When you browse on this site, cookies collect data to enhance your experience and personalize the content and advertising you see.
Visit our Privacy Policy to learn more. By continuing to use the site, you agree to this use of cookies and data.
  • In Deutschland
  • Länderverzeichnis
  • Für 7 Tage
  • Wassertemperatur
  • Wetterkarte
  • Widgets
  • user-avatar
    Anmelden

    Stündliche Wetter Shlobin

    Heute, 2 Juni, Dienstag

    Zeit Temperatur Niederschläge Wind Luftdruck Luftfeuchtigkeit
    00:00 +7°C° 0.5 mm 4 m/S 743 mmHg 96%
    01:00 +8°C° 0.5 mm 3 m/S 742 mmHg 97%
    02:00 +8°C° 0.5 mm 3 m/S 741 mmHg 97%
    03:00 +8°C° 0.6 mm 2 m/S 741 mmHg 97%
    04:00 +8°C° 0.6 mm 2 m/S 740 mmHg 98%
    05:00 +9°C° 0.6 mm 2 m/S 740 mmHg 98%
    06:00 +9°C° 0.1 mm 2 m/S 740 mmHg 95%
    07:00 +10°C° 0.1 mm 2 m/S 740 mmHg 93%
    08:00 +10°C° 0.1 mm 2 m/S 740 mmHg 90%
    09:00 +12°C° 0.8 mm 2 m/S 740 mmHg 87%
    10:00 +12°C° 0.8 mm 2 m/S 740 mmHg 84%
    11:00 +13°C° 0.8 mm 1 m/S 740 mmHg 81%
    12:00 +12°C° 0.4 mm 3 m/S 740 mmHg 78%
    13:00 +13°C° 0.4 mm 4 m/S 741 mmHg 75%
    14:00 +14°C° 0.4 mm 5 m/S 741 mmHg 71%
    15:00 +14°C° 0.2 mm 5 m/S 741 mmHg 71%
    16:00 +14°C° 0.2 mm 5 m/S 740 mmHg 71%
    17:00 +14°C° 0.2 mm 5 m/S 740 mmHg 71%
    18:00 +12°C° 0.1 mm 4 m/S 741 mmHg 76%
    19:00 +11°C° 0.1 mm 4 m/S 741 mmHg 81%
    20:00 +9°C° 0.1 mm 3 m/S 741 mmHg 87%
    21:00 +9°C° 0 mm 3 m/S 741 mmHg 89%
    22:00 +8°C° 0 mm 3 m/S 741 mmHg 92%
    23:00 +7°C° 0 mm 3 m/S 742 mmHg 94%

    Morgen, 3 Juni, Mittwoch

    Zeit Temperatur Niederschläge Wind Luftdruck Luftfeuchtigkeit
    00:00 +7°C° 0 mm 3 m/S 742 mmHg 95%
    01:00 +7°C° 0 mm 3 m/S 742 mmHg 95%
    02:00 +6°C° 0 mm 4 m/S 742 mmHg 96%
    03:00 +6°C° 0 mm 4 m/S 742 mmHg 96%
    04:00 +6°C° 0 mm 4 m/S 742 mmHg 95%
    05:00 +6°C° 0 mm 4 m/S 741 mmHg 95%
    06:00 +8°C° 0 mm 4 m/S 741 mmHg 90%
    07:00 +9°C° 0 mm 5 m/S 742 mmHg 84%
    08:00 +11°C° 0 mm 6 m/S 742 mmHg 79%
    09:00 +13°C° 0.4 mm 6 m/S 742 mmHg 77%
    10:00 +14°C° 0.4 mm 6 m/S 742 mmHg 75%
    11:00 +14°C° 0.4 mm 7 m/S 741 mmHg 74%
    12:00 +15°C° 0.3 mm 6 m/S 741 mmHg 72%
    13:00 +15°C° 0.3 mm 6 m/S 741 mmHg 70%
    14:00 +15°C° 0.3 mm 6 m/S 741 mmHg 69%
    15:00 +15°C° 0.4 mm 6 m/S 741 mmHg 72%
    16:00 +15°C° 0.4 mm 5 m/S 741 mmHg 74%
    17:00 +15°C° 0.4 mm 5 m/S 740 mmHg 77%
    18:00 +13°C° 0.2 mm 4 m/S 740 mmHg 82%
    19:00 +12°C° 0.2 mm 4 m/S 740 mmHg 86%
    20:00 +11°C° 0.2 mm 3 m/S 741 mmHg 91%
    21:00 +10°C° 0 mm 3 m/S 740 mmHg 92%
    22:00 +10°C° 0 mm 3 m/S 740 mmHg 94%
    23:00 +9°C° 0 mm 3 m/S 740 mmHg 95%

    übermorgen, 4 Juni, Donnerstag

    Zeit Temperatur Niederschläge Wind Luftdruck Luftfeuchtigkeit
    00:00 +9°C° 0 mm 3 m/S 740 mmHg 95%
    01:00 +8°C° 0 mm 3 m/S 740 mmHg 96%
    02:00 +8°C° 0 mm 2 m/S 740 mmHg 96%
    03:00 +8°C° 0 mm 2 m/S 740 mmHg 96%
    04:00 +8°C° 0 mm 2 m/S 740 mmHg 97%
    05:00 +7°C° 0 mm 2 m/S 740 mmHg 97%
    06:00 +9°C° 0 mm 3 m/S 740 mmHg 92%
    07:00 +11°C° 0 mm 3 m/S 740 mmHg 88%
    08:00 +13°C° 0 mm 4 m/S 740 mmHg 84%
    09:00 +14°C° 0.2 mm 4 m/S 740 mmHg 79%
    10:00 +15°C° 0.2 mm 5 m/S 740 mmHg 74%
    11:00 +16°C° 0.2 mm 5 m/S 740 mmHg 68%
    12:00 +16°C° 0.4 mm 5 m/S 740 mmHg 67%
    13:00 +17°C° 0.4 mm 5 m/S 740 mmHg 66%
    14:00 +17°C° 0.4 mm 5 m/S 740 mmHg 65%
    15:00 +17°C° 0.5 mm 5 m/S 740 mmHg 69%
    16:00 +16°C° 0.5 mm 5 m/S 740 mmHg 73%
    17:00 +16°C° 0.5 mm 5 m/S 740 mmHg 78%
    18:00 +15°C° 0.4 mm 4 m/S 740 mmHg 82%
    19:00 +14°C° 0.4 mm 3 m/S 740 mmHg 86%
    20:00 +12°C° 0.4 mm 3 m/S 740 mmHg 91%
    21:00 +12°C° 0 mm 3 m/S 740 mmHg 92%
    22:00 +11°C° 0 mm 3 m/S 740 mmHg 93%
    23:00 +10°C° 0 mm 3 m/S 740 mmHg 94%

    5 Juni, Freitag

    Zeit Temperatur Niederschläge Wind Luftdruck Luftfeuchtigkeit
    00:00 +10°C° 0 mm 3 m/S 740 mmHg 94%
    01:00 +10°C° 0 mm 3 m/S 740 mmHg 95%
    02:00 +9°C° 0 mm 3 m/S 740 mmHg 95%
    03:00 +9°C° 0 mm 3 m/S 741 mmHg 96%
    04:00 +9°C° 0 mm 3 m/S 741 mmHg 96%
    05:00 +10°C° 0 mm 3 m/S 741 mmHg 96%
    06:00 +11°C° 0 mm 3 m/S 741 mmHg 93%
    07:00 +13°C° 0 mm 3 m/S 741 mmHg 89%
    08:00 +15°C° 0 mm 4 m/S 741 mmHg 86%
    09:00 +18°C° 0.2 mm 4 m/S 741 mmHg 81%
    10:00 +19°C° 0.2 mm 5 m/S 741 mmHg 77%
    11:00 +21°C° 0.2 mm 5 m/S 741 mmHg 73%
    12:00 +21°C° 0.9 mm 5 m/S 741 mmHg 74%
    13:00 +22°C° 0.9 mm 5 m/S 741 mmHg 76%
    14:00 +22°C° 0.9 mm 5 m/S 741 mmHg 77%
    15:00 +21°C° 0.4 mm 5 m/S 741 mmHg 80%
    16:00 +21°C° 0.4 mm 4 m/S 741 mmHg 83%
    17:00 +20°C° 0.4 mm 3 m/S 741 mmHg 85%
    18:00 +19°C° 0.1 mm 3 m/S 741 mmHg 88%
    19:00 +19°C° 0.1 mm 3 m/S 741 mmHg 91%
    20:00 +18°C° 0.1 mm 3 m/S 741 mmHg 93%
    21:00 +18°C° 0.2 mm 3 m/S 742 mmHg 94%
    22:00 +17°C° 0.2 mm 3 m/S 742 mmHg 94%
    23:00 +17°C° 0.2 mm 3 m/S 742 mmHg 94%

    6 Juni, Samstag

    Zeit Temperatur Niederschläge Wind Luftdruck Luftfeuchtigkeit
    00:00 +17°C° 0.1 mm 3 m/S 742 mmHg 95%
    01:00 +16°C° 0.1 mm 3 m/S 742 mmHg 95%
    02:00 +16°C° 0.1 mm 3 m/S 742 mmHg 95%
    03:00 +16°C° 0.1 mm 3 m/S 742 mmHg 95%
    04:00 +16°C° 0.1 mm 3 m/S 742 mmHg 95%
    05:00 +16°C° 0.1 mm 3 m/S 742 mmHg 95%
    06:00 +17°C° 0 mm 4 m/S 742 mmHg 93%
    07:00 +18°C° 0 mm 4 m/S 742 mmHg 91%
    08:00 +20°C° 0 mm 5 m/S 742 mmHg 89%
    09:00 +21°C° 0 mm 5 m/S 742 mmHg 84%
    10:00 +22°C° 0 mm 6 m/S 742 mmHg 79%
    11:00 +24°C° 0 mm 6 m/S 742 mmHg 74%
    12:00 +24°C° 0.7 mm 6 m/S 742 mmHg 76%
    13:00 +24°C° 0.7 mm 6 m/S 742 mmHg 77%
    14:00 +24°C° 0.7 mm 7 m/S 742 mmHg 78%
    15:00 +25°C° 0.7 mm 5 m/S 742 mmHg 79%
    16:00 +23°C° 0.7 mm 4 m/S 742 mmHg 81%
    17:00 +24°C° 0.7 mm 3 m/S 743 mmHg 82%
    18:00 +22°C° 0.6 mm 3 m/S 743 mmHg 85%
    19:00 +20°C° 0.6 mm 3 m/S 743 mmHg 88%
    20:00 +19°C° 0.6 mm 3 m/S 743 mmHg 91%
    21:00 +18°C° 0 mm 3 m/S 744 mmHg 92%
    22:00 +17°C° 0 mm 3 m/S 745 mmHg 93%
    23:00 +16°C° 0 mm 2 m/S 745 mmHg 93%

    7 Juni, Sonntag

    Zeit Temperatur Niederschläge Wind Luftdruck Luftfeuchtigkeit
    00:00 +16°C° 0 mm 2 m/S 746 mmHg 93%
    01:00 +15°C° 0 mm 2 m/S 746 mmHg 93%
    02:00 +14°C° 0 mm 2 m/S 746 mmHg 93%
    03:00 +14°C° 0 mm 2 m/S 747 mmHg 93%
    04:00 +14°C° 0 mm 2 m/S 747 mmHg 92%
    05:00 +14°C° 0 mm 1 m/S 747 mmHg 92%
    06:00 +15°C° 0 mm 1 m/S 748 mmHg 87%
    07:00 +16°C° 0 mm 1 m/S 748 mmHg 83%
    08:00 +18°C° 0 mm 1 m/S 749 mmHg 78%
    09:00 +19°C° 0 mm 1 m/S 749 mmHg 74%
    10:00 +19°C° 0 mm 2 m/S 749 mmHg 70%
    11:00 +20°C° 0 mm 2 m/S 749 mmHg 65%
    12:00 +21°C° 0 mm 2 m/S 749 mmHg 64%
    13:00 +21°C° 0 mm 2 m/S 749 mmHg 63%
    14:00 +23°C° 0 mm 2 m/S 749 mmHg 62%
    15:00 +23°C° 0 mm 2 m/S 749 mmHg 63%
    16:00 +23°C° 0 mm 2 m/S 749 mmHg 64%
    17:00 +22°C° 0 mm 3 m/S 749 mmHg 64%
    18:00 +21°C° 0 mm 3 m/S 749 mmHg 70%
    19:00 +19°C° 0 mm 2 m/S 749 mmHg 75%
    20:00 +17°C° 0 mm 2 m/S 749 mmHg 80%
    21:00 +17°C° 0 mm 2 m/S 749 mmHg 82%
    22:00 +16°C° 0 mm 2 m/S 749 mmHg 84%
    23:00 +15°C° 0 mm 2 m/S 749 mmHg 86%
    Mehr zeigen